[[{"header":{"parameterUnit":"m.s-1","parameterCategory":2,"la1":30.2992,"la2":30.254,"lo1":-89.0895,"lo2":-89.0443,"dy":0.0025,"dx":0.0025,"nx":19,"ny":19,"refTime":"2026-05-08T09:00:00:Z","depth":"0","parameterNumber":2,"parameterNumberName":"U-component_of_CURRENTS"},"data":[0,0,0,-0.3545,-0.3545,-0.3552,-0.3552,-0.3515,-0.3515,0,0,0,0,0,0,0,0,0,0,0,-0.3534,-0.3534,-0.3545,-0.3546,-0.3552,-0.3552,-0.3515,-0.3515,0,0,0,0,0,0,0,0,0,0,0,-0.3534,-0.3534,-0.3534,-0.3546,-0.3552,-0.3552,-0.3515,-0.3521,0,0,0,0,0,0,0,0,0,0,-0.352,-0.3506,-0.3534,-0.3534,-0.3546,-0.3552,-0.3552,-0.3521,-0.352,-0.3501,0,-0.3498,0,-0.351,-0.3512,-0.3512,0,0,0,-0.3541,-0.3507,-0.3522,-0.3534,-0.3546,-0.3552,-0.3548,-0.3521,-0.352,-0.3499,-0.3498,-0.3497,-0.351,-0.3511,-0.3511,-0.3321,-0.3319,0,0,-0.3541,-0.3522,-0.3523,-0.3521,-0.3542,-0.3548,-0.3548,-0.3521,-0.3508,-0.3498,-0.3497,-0.3509,-0.3511,-0.3511,-0.3323,-0.3321,0,0,0,-0.3543,-0.3522,-0.3538,-0.3522,-0.3529,-0.3548,-0.3548,-0.3509,-0.3518,-0.3497,-0.3509,-0.3511,-0.351,-0.3325,-0.3322,-0.3272,0,0,0,-0.3542,-0.3524,-0.3537,-0.3525,-0.353,-0.3523,-0.3537,-0.352,-0.3518,-0.3509,-0.3511,-0.351,-0.3327,-0.3323,-0.3278,-0.327,0,0,0,-0.3535,-0.3523,-0.3525,-0.3524,-0.3531,-0.3524,-0.3531,-0.352,-0.3525,-0.3511,-0.351,-0.3328,-0.3324,-0.3283,-0.3277,-0.3264,0,0,0,-0.3514,-0.3494,-0.3524,-0.351,-0.3531,-0.3502,-0.3532,-0.3525,-0.3514,-0.3511,-0.3326,-0.3322,-0.3284,-0.3282,-0.3267,-0.3098,-0.3068,0,0,-0.3478,-0.3489,-0.3485,-0.3513,-0.3437,-0.3501,-0.3414,-0.3434,-0.3431,-0.3337,-0.3333,-0.3276,-0.3278,-0.3264,-0.286,-0.2837,0,0,0,-0.3468,-0.3409,-0.341,-0.3372,-0.3401,-0.3358,-0.3373,-0.3352,-0.3276,-0.3405,-0.3205,-0.3207,-0.3202,-0.3104,-0.3084,-0.3024,-0.3303,-0.3304,-0.3304,-0.3241,-0.3284,-0.3216,-0.3224,-0.3228,-0.3238,-0.3216,-0.3165,-0.3192,-0.3125,-0.3114,-0.2997,-0.2884,-0.2869,-0.2807,-0.3045,-0.3044,-0.3044,-0.3044,-0.3046,-0.2984,-0.3037,-0.2995,-0.3026,-0.298,-0.2996,-0.3018,-0.2953,-0.2971,-0.2969,-0.2988,-0.2845,-0.2786,-0.304,-0.3041,-0.3041,-0.3041,-0.3042,-0.2804,-0.2799,-0.2815,-0.2803,-0.2785,-0.2854,-0.2839,-0.2887,-0.289,-0.2888,-0.281,-0.2809,-0.2811,-0.2898,-0.2897,-0.2897,-0.2897,-0.2897,-0.2897,-0.2586,-0.2606,-0.2574,-0.2615,-0.2625,-0.2677,-0.2765,-0.277,-0.2752,-0.2731,-0.273,-0.2711,-0.2953,-0.302,-0.2895,-0.2895,-0.2895,-0.2896,-0.2896,-0.2296,-0.2395,-0.2325,-0.234,-0.24,-0.2384,-0.2544,-0.2527,-0.2563,-0.2503,-0.2447,-0.2645,-0.2658,-0.2671,-0.2728,-0.2536,-0.2536,-0.2536,-0.2536,-0.2132,-0.2171,-0.2106,-0.2101,-0.2127,-0.2228,-0.2122,-0.2167,-0.2203,-0.2171,-0.2268,-0.2235,-0.2253,-0.2244,-0.2266,-0.2317,-0.2024,-0.2024,-0.2023,-0.197,-0.1998,-0.1892,-0.1949,-0.1984,-0.2012,-0.186,-0.1804,-0.1895,-0.2006,-0.2218,-0.224,-0.2203,-0.2236,-0.2237,-0.2273,-0.2363,0,0]},{"header":{"parameterUnit":"m.s-1","parameterCategory":2,"la1":30.2992,"la2":30.254,"lo1":-89.0895,"lo2":-89.0443,"dy":0.0025,"dx":0.0025,"nx":19,"ny":19,"refTime":"2026-05-08T09:00:00:Z","depth":"0","parameterNumber":3,"parameterNumberName":"V-component_of_CURRENTS"},"data":[0,0,0,-0.0477,-0.0475,-0.0361,-0.036,-0.0107,-0.0105,0,0,0,0,0,0,0,0,0,0,0,-0.0511,-0.0511,-0.0477,-0.0475,-0.0361,-0.036,-0.0108,-0.0105,0,0,0,0,0,0,0,0,0,0,0,-0.0511,-0.0511,-0.051,-0.0475,-0.0361,-0.036,-0.0108,-0.0215,0,0,0,0,0,0,0,0,0,0,-0.0337,-0.0411,-0.0511,-0.051,-0.0474,-0.0361,-0.036,-0.0221,-0.0209,-0.0136,0,-0.0131,0,-0.0121,-0.0088,-0.0087,0,0,0,-0.0451,-0.0422,-0.0378,-0.051,-0.0473,-0.0361,-0.0406,-0.0215,-0.02,-0.0119,-0.0128,-0.0119,-0.0117,-0.0086,-0.0085,0.0087,0.0087,0,0,-0.0458,-0.0494,-0.0388,-0.0369,-0.0457,-0.0409,-0.0402,-0.0207,-0.0203,-0.0127,-0.0114,-0.0113,-0.0085,-0.0083,0.0087,0.0087,0,0,0,-0.0492,-0.0499,-0.0461,-0.0379,-0.0371,-0.0407,-0.0398,-0.0211,-0.0196,-0.0111,-0.011,-0.0083,-0.008,0.0087,0.0087,-0.0041,0,0,0,-0.0494,-0.052,-0.0465,-0.0485,-0.0377,-0.031,-0.0407,-0.0209,-0.0187,-0.0111,-0.0083,-0.0078,0.0087,0.0087,-0.0038,-0.0097,0,0,0,-0.0514,-0.0522,-0.0511,-0.0488,-0.0448,-0.0313,-0.0286,-0.0205,-0.0187,-0.0087,-0.0077,0.0087,0.0087,-0.0034,-0.009,-0.0067,0,0,0,-0.055,-0.0565,-0.0512,-0.0518,-0.0449,-0.0383,-0.0288,-0.0221,-0.0146,-0.0082,0.0087,0.0087,-0.0033,-0.0086,-0.0065,0.0052,0.0049,0,0,-0.0593,-0.0571,-0.0572,-0.0522,-0.0492,-0.0396,-0.0353,-0.0217,-0.0118,0.0035,0.0039,-0.0039,-0.009,-0.0067,0.0046,0.0043,0,0,0,-0.0601,-0.0601,-0.058,-0.0549,-0.0479,-0.0425,-0.0297,-0.0236,-0.012,-0.0077,-0.0004,-0.0032,-0.0014,0.0064,0.0061,0.0298,0.0086,0.0086,0.0086,-0.0697,-0.065,-0.0652,-0.0587,-0.0541,-0.0428,-0.0373,-0.0259,-0.0155,-0.0133,-0.0111,-0.0149,-0.0069,-0.0069,0.0172,-0.0079,-0.0079,-0.008,-0.008,-0.0764,-0.0765,-0.0708,-0.0694,-0.0619,-0.0568,-0.043,-0.0364,-0.0252,-0.0192,-0.0166,-0.0045,-0.0079,0.018,-0.0088,-0.0086,-0.0085,-0.0085,-0.0084,-0.082,-0.082,-0.0805,-0.0792,-0.0762,-0.0665,-0.0616,-0.0505,-0.0363,-0.0347,-0.0173,-0.0169,0.0042,-0.0309,-0.0309,-0.031,-0.031,-0.031,-0.031,-0.0893,-0.0877,-0.091,-0.0891,-0.0894,-0.0857,-0.0724,-0.0627,-0.0421,-0.0288,-0.0285,0.0077,-0.0217,-0.0226,-0.0313,-0.0312,-0.0312,-0.0312,-0.0311,-0.0953,-0.0962,-0.1015,-0.1034,-0.1035,-0.0978,-0.0859,-0.0576,-0.0455,-0.0311,0.0115,-0.0217,-0.0148,-0.0142,-0.0147,-0.0208,-0.0208,-0.0208,-0.0208,-0.1011,-0.1015,-0.1098,-0.1143,-0.1154,-0.1037,-0.0795,-0.0475,-0.0013,0.0247,0.0288,0.0384,0.0369,0.0474,0.0466,0.0477,0.0576,0.0577,0.0578,-0.1058,-0.1083,-0.1147,-0.1188,-0.1201,-0.1055,-0.0734,-0.0251,0.0388,0.063,0.0591,0.0558,0.0715,0.0673,0.0853,0.0823,0.0845,0,0]}],[{"header":{"parameterUnit":"m.s-1","parameterCategory":2,"la1":30.2992,"la2":30.254,"lo1":-89.0895,"lo2":-89.0443,"dy":0.0025,"dx":0.0025,"nx":19,"ny":19,"refTime":"2026-05-08T09:00:00:Z","depth":"2","parameterNumber":2,"parameterNumberName":"U-component_of_CURRENTS"},"data":[0,0,0,-0.2973,-0.2975,-0.3062,-0.3062,-0.3049,-0.3049,0,0,0,0,0,0,0,0,0,0,0,-0.294,-0.2941,-0.2973,-0.2976,-0.3062,-0.3062,-0.3049,-0.3049,0,0,0,0,0,0,0,0,0,0,0,-0.294,-0.2941,-0.2943,-0.2976,-0.3062,-0.3062,-0.3049,-0.3009,0,0,0,0,0,0,0,0,0,0,-0.2938,-0.2941,-0.2941,-0.2943,-0.2977,-0.3062,-0.3062,-0.3008,-0.3011,-0.2983,0,-0.302,0,-0.3045,-0.3048,-0.3047,0,0,0,-0.295,-0.2939,-0.2961,-0.2943,-0.2978,-0.3062,-0.3016,-0.301,-0.3014,-0.2987,-0.302,-0.302,-0.3044,-0.3047,-0.3047,-0.2924,-0.2922,0,0,-0.2946,-0.2948,-0.2959,-0.2965,-0.3029,-0.3013,-0.3019,-0.3014,-0.3027,-0.302,-0.3021,-0.3044,-0.3047,-0.3047,-0.2925,-0.2923,0,0,0,-0.2949,-0.2945,-0.2969,-0.2964,-0.2996,-0.3016,-0.3023,-0.3027,-0.3036,-0.3021,-0.3044,-0.3047,-0.3047,-0.2926,-0.2924,-0.2895,0,0,0,-0.2945,-0.2949,-0.2968,-0.2968,-0.2998,-0.3032,-0.3036,-0.3036,-0.3037,-0.3044,-0.3047,-0.3047,-0.2927,-0.2925,-0.2899,-0.2904,0,0,0,-0.2931,-0.2947,-0.2966,-0.2969,-0.3018,-0.3033,-0.3042,-0.3037,-0.3051,-0.3047,-0.3047,-0.2928,-0.2925,-0.2902,-0.2908,-0.2897,0,0,0,-0.2916,-0.2911,-0.2967,-0.2977,-0.3018,-0.3019,-0.3042,-0.3067,-0.3068,-0.3047,-0.2927,-0.2924,-0.2903,-0.2911,-0.2899,-0.272,-0.2694,0,0,-0.2881,-0.2908,-0.291,-0.2961,-0.2941,-0.3004,-0.2959,-0.2996,-0.2999,-0.2919,-0.2918,-0.2898,-0.2908,-0.2897,-0.2554,-0.2534,0,0,0,-0.2878,-0.2864,-0.2877,-0.2892,-0.2928,-0.2926,-0.2958,-0.2945,-0.29,-0.2992,-0.2847,-0.2854,-0.2849,-0.2743,-0.2726,-0.2911,-0.2911,-0.2911,-0.2912,-0.2761,-0.279,-0.2768,-0.2792,-0.2816,-0.2858,-0.2852,-0.2823,-0.2841,-0.2802,-0.2792,-0.2712,-0.2593,-0.258,-0.2738,-0.2738,-0.2738,-0.2738,-0.2738,-0.2638,-0.2598,-0.2668,-0.2652,-0.2697,-0.268,-0.2704,-0.2727,-0.2681,-0.2692,-0.2689,-0.2668,-0.256,-0.2734,-0.2735,-0.2736,-0.2736,-0.2736,-0.2736,-0.2492,-0.2475,-0.2507,-0.2517,-0.2534,-0.2598,-0.2599,-0.2647,-0.2649,-0.2653,-0.255,-0.2549,-0.2742,-0.2655,-0.2655,-0.2654,-0.2654,-0.2654,-0.2654,-0.2321,-0.235,-0.2332,-0.2388,-0.2405,-0.2463,-0.2552,-0.2556,-0.2529,-0.2501,-0.2499,-0.2685,-0.2687,-0.2735,-0.2653,-0.2653,-0.2653,-0.2654,-0.2654,-0.2089,-0.217,-0.2127,-0.2147,-0.2214,-0.2197,-0.2352,-0.2322,-0.2354,-0.2287,-0.2405,-0.2412,-0.2413,-0.2424,-0.2463,-0.2316,-0.2316,-0.2316,-0.2316,-0.1947,-0.1984,-0.1936,-0.1938,-0.1969,-0.2054,-0.193,-0.1932,-0.2018,-0.202,-0.2033,-0.1989,-0.2008,-0.1988,-0.2008,-0.204,-0.1783,-0.1782,-0.1781,-0.1805,-0.1835,-0.1745,-0.1803,-0.1838,-0.1848,-0.1659,-0.1498,-0.1551,-0.1766,-0.1994,-0.227,-0.2239,-0.2256,-0.2256,-0.2276,-0.234,0,0]},{"header":{"parameterUnit":"m.s-1","parameterCategory":2,"la1":30.2992,"la2":30.254,"lo1":-89.0895,"lo2":-89.0443,"dy":0.0025,"dx":0.0025,"nx":19,"ny":19,"refTime":"2026-05-08T09:00:00:Z","depth":"2","parameterNumber":3,"parameterNumberName":"V-component_of_CURRENTS"},"data":[0,0,0,-0.051,-0.0508,-0.0418,-0.0418,-0.0219,-0.0218,0,0,0,0,0,0,0,0,0,0,0,-0.0537,-0.0536,-0.051,-0.0508,-0.0418,-0.0418,-0.022,-0.0218,0,0,0,0,0,0,0,0,0,0,0,-0.0537,-0.0536,-0.0536,-0.0508,-0.0419,-0.0418,-0.022,-0.0305,0,0,0,0,0,0,0,0,0,0,-0.0401,-0.0461,-0.0536,-0.0536,-0.0508,-0.0419,-0.0418,-0.031,-0.0299,-0.0242,0,-0.0236,0,-0.0229,-0.0204,-0.0203,0,0,0,-0.0491,-0.047,-0.0431,-0.0536,-0.0507,-0.0419,-0.0454,-0.0304,-0.0293,-0.0228,-0.0234,-0.0227,-0.0225,-0.0203,-0.0202,-0.0038,-0.0038,0,0,-0.0496,-0.0527,-0.044,-0.0425,-0.0492,-0.0457,-0.0452,-0.0298,-0.0296,-0.0233,-0.0222,-0.0222,-0.0201,-0.02,-0.0039,-0.0038,0,0,0,-0.0522,-0.0531,-0.0498,-0.0432,-0.0426,-0.0455,-0.0449,-0.0303,-0.0288,-0.022,-0.022,-0.02,-0.0198,-0.0039,-0.0039,-0.013,0,0,0,-0.0524,-0.0546,-0.05,-0.0518,-0.043,-0.038,-0.0457,-0.0299,-0.0282,-0.0221,-0.02,-0.0196,-0.0039,-0.0039,-0.0128,-0.0177,0,0,0,-0.0539,-0.0548,-0.0538,-0.052,-0.0488,-0.0382,-0.0359,-0.0295,-0.0281,-0.0203,-0.0195,-0.0039,-0.0039,-0.0126,-0.0173,-0.0142,0,0,0,-0.0572,-0.0582,-0.0539,-0.0546,-0.0489,-0.0435,-0.036,-0.0309,-0.0251,-0.0199,-0.0039,-0.0039,-0.0126,-0.017,-0.0141,-0.0059,-0.0059,0,0,-0.0605,-0.0587,-0.059,-0.0549,-0.0521,-0.0445,-0.0401,-0.0296,-0.0215,-0.0081,-0.0078,-0.0129,-0.0173,-0.0142,-0.0023,-0.0025,0,0,0,-0.0614,-0.0612,-0.0596,-0.057,-0.0513,-0.0457,-0.0356,-0.0298,-0.0189,-0.018,-0.009,-0.0114,-0.0092,-0.0039,-0.0039,-0.0036,-0.0036,-0.0036,-0.0036,-0.0687,-0.065,-0.065,-0.0594,-0.0553,-0.045,-0.0393,-0.0285,-0.0208,-0.0174,-0.016,-0.0163,-0.0106,-0.0106,-0.012,-0.0121,-0.0121,-0.0121,-0.0122,-0.0739,-0.0743,-0.0689,-0.0677,-0.0601,-0.0551,-0.0411,-0.0351,-0.0237,-0.0196,-0.017,-0.0103,-0.0111,-0.0128,-0.0127,-0.0126,-0.0125,-0.0125,-0.0124,-0.0789,-0.0789,-0.0776,-0.0759,-0.0718,-0.0624,-0.0563,-0.0452,-0.0319,-0.0297,-0.017,-0.0167,-0.0219,-0.0266,-0.0266,-0.0266,-0.0266,-0.0267,-0.0267,-0.0857,-0.084,-0.0869,-0.0844,-0.0843,-0.0797,-0.0656,-0.056,-0.0368,-0.0252,-0.025,-0.021,-0.0205,-0.0224,-0.0268,-0.0268,-0.0268,-0.0267,-0.0267,-0.0917,-0.0924,-0.0972,-0.0986,-0.0975,-0.0923,-0.079,-0.0527,-0.0404,-0.0277,-0.0191,-0.0192,-0.0143,-0.0139,-0.0154,-0.0177,-0.0177,-0.0177,-0.0177,-0.0974,-0.0976,-0.1054,-0.1092,-0.1093,-0.0982,-0.0784,-0.0489,-0.0232,-0.011,-0.0113,-0.0081,-0.0085,-0.003,-0.003,-0.0041,-0.0035,-0.0035,-0.0035,-0.102,-0.1044,-0.1105,-0.1138,-0.1142,-0.1015,-0.0773,-0.0386,-0.0058,-0.0034,-0.0133,-0.0159,-0.0117,-0.0122,-0.0039,-0.0038,-0.0056,0,0]}],[{"header":{"parameterUnit":"m.s-1","parameterCategory":2,"la1":30.2992,"la2":30.254,"lo1":-89.0895,"lo2":-89.0443,"dy":0.0025,"dx":0.0025,"nx":19,"ny":19,"refTime":"2026-05-08T09:00:00:Z","depth":"4","parameterNumber":2,"parameterNumberName":"U-component_of_CURRENTS"},"data":[0,0,0,-0.1781,-0.1786,-0.2004,-0.2005,-0.2094,-0.2094,0,0,0,0,0,0,0,0,0,0,0,-0.1709,-0.1711,-0.178,-0.1787,-0.2004,-0.2005,-0.2094,-0.2094,0,0,0,0,0,0,0,0,0,0,0,-0.1708,-0.1711,-0.1714,-0.1787,-0.2004,-0.2005,-0.2093,-0.1973,0,0,0,0,0,0,0,0,0,0,-0.1783,-0.1754,-0.171,-0.1714,-0.1789,-0.2004,-0.2005,-0.1969,-0.198,-0.1945,0,-0.2006,0,-0.2054,-0.2097,-0.2097,0,0,0,-0.1771,-0.1745,-0.1803,-0.1714,-0.1791,-0.2004,-0.1902,-0.1976,-0.1989,-0.1959,-0.2008,-0.2013,-0.2055,-0.2097,-0.2098,-0.2092,-0.2092,0,0,-0.1759,-0.1741,-0.1795,-0.1812,-0.1879,-0.1895,-0.1909,-0.1986,-0.2008,-0.2008,-0.2016,-0.2057,-0.2098,-0.2098,-0.2092,-0.2092,0,0,0,-0.1735,-0.1732,-0.1792,-0.1806,-0.1863,-0.1902,-0.1918,-0.2005,-0.2026,-0.2017,-0.2058,-0.2098,-0.2098,-0.2093,-0.2092,-0.216,0,0,0,-0.1727,-0.172,-0.1787,-0.1776,-0.1864,-0.1965,-0.1934,-0.2021,-0.2032,-0.2058,-0.2098,-0.2099,-0.2093,-0.2092,-0.2159,-0.2175,0,0,0,-0.1694,-0.1716,-0.1751,-0.1775,-0.1877,-0.1965,-0.1992,-0.2025,-0.2056,-0.2097,-0.2099,-0.2093,-0.2093,-0.2159,-0.2173,-0.2169,0,0,0,-0.165,-0.1718,-0.1751,-0.1822,-0.1875,-0.1961,-0.1992,-0.2066,-0.2104,-0.2098,-0.2093,-0.2092,-0.2158,-0.2172,-0.2169,-0.1904,0,0,0,-0.17,-0.1724,-0.1757,-0.1791,-0.1881,-0.1928,-0.2002,-0.2075,-0.2067,-0.2053,-0.2055,-0.216,-0.2173,-0.2169,-0.1849,0,0,0,0,-0.1746,-0.1773,-0.1803,-0.187,-0.1934,-0.2007,-0.2071,-0.2084,-0.2117,-0.2091,-0.2121,-0.2126,-0.2123,-0.1963,-0.2088,-0.2088,-0.2088,-0.2088,-0.2088,-0.1776,-0.1801,-0.1856,-0.1907,-0.1966,-0.2057,-0.2101,-0.2119,-0.212,-0.2132,-0.2154,-0.2157,-0.1989,-0.2128,-0.2129,-0.2129,-0.2129,-0.2129,-0.2129,-0.1794,-0.179,-0.1867,-0.1928,-0.2009,-0.2072,-0.2138,-0.2165,-0.2182,-0.2171,-0.2165,-0.2011,-0.2135,-0.2134,-0.2133,-0.2133,-0.2132,-0.2132,-0.2131,-0.1732,-0.1734,-0.1805,-0.1896,-0.1997,-0.2089,-0.213,-0.2199,-0.2218,-0.2236,-0.2031,-0.2181,-0.2206,-0.223,-0.223,-0.223,-0.223,-0.223,-0.223,-0.1617,-0.1688,-0.1731,-0.1853,-0.1914,-0.2009,-0.2129,-0.2133,-0.2187,-0.2051,-0.2243,-0.219,-0.2187,-0.2209,-0.2231,-0.2231,-0.2231,-0.2231,-0.2231,-0.1472,-0.1547,-0.1585,-0.1652,-0.1782,-0.1838,-0.2003,-0.1961,-0.1942,-0.1861,-0.1937,-0.1952,-0.1894,-0.1898,-0.1909,-0.1843,-0.1839,-0.1836,0,-0.1364,-0.1408,-0.1446,-0.1501,-0.1548,-0.1711,-0.163,-0.1679,-0.1717,-0.1663,-0.1936,-0.2025,-0.2032,-0.1972,-0.1969,-0.1981,0,0,0,-0.1264,-0.1304,-0.1283,-0.1383,-0.1426,-0.1469,-0.1597,-0.153,-0.1736,-0.1624,-0.1752,-0.1774,-0.2054,-0.2234,-0.2179,-0.2175,-0.2208,0,0]},{"header":{"parameterUnit":"m.s-1","parameterCategory":2,"la1":30.2992,"la2":30.254,"lo1":-89.0895,"lo2":-89.0443,"dy":0.0025,"dx":0.0025,"nx":19,"ny":19,"refTime":"2026-05-08T09:00:00:Z","depth":"4","parameterNumber":3,"parameterNumberName":"V-component_of_CURRENTS"},"data":[0,0,0,-0.0436,-0.0436,-0.0421,-0.0421,-0.0339,-0.0338,0,0,0,0,0,0,0,0,0,0,0,-0.0438,-0.0438,-0.0436,-0.0436,-0.0421,-0.0421,-0.0339,-0.0338,0,0,0,0,0,0,0,0,0,0,0,-0.0438,-0.0438,-0.0438,-0.0436,-0.0421,-0.0421,-0.0339,-0.0363,0,0,0,0,0,0,0,0,0,0,-0.0384,-0.0412,-0.0438,-0.0438,-0.0436,-0.0421,-0.0421,-0.0365,-0.0361,-0.0331,0,-0.0336,0,-0.034,-0.0332,-0.0332,0,0,0,-0.0424,-0.0415,-0.0401,-0.0438,-0.0436,-0.0421,-0.0425,-0.0363,-0.036,-0.0326,-0.0335,-0.0332,-0.0338,-0.0331,-0.0331,-0.0228,-0.0228,0,0,-0.0425,-0.0441,-0.0404,-0.0399,-0.044,-0.0425,-0.0424,-0.0362,-0.0366,-0.0335,-0.0331,-0.0337,-0.0331,-0.033,-0.0229,-0.0228,0,0,0,-0.0435,-0.0442,-0.043,-0.0402,-0.0407,-0.0425,-0.0424,-0.0369,-0.0362,-0.033,-0.0336,-0.033,-0.0329,-0.0229,-0.0229,-0.0244,0,0,0,-0.0435,-0.0448,-0.0431,-0.0441,-0.0409,-0.04,-0.0432,-0.0367,-0.036,-0.0336,-0.033,-0.0328,-0.023,-0.0229,-0.0245,-0.0274,0,0,0,-0.0437,-0.0449,-0.0447,-0.0441,-0.044,-0.0401,-0.0392,-0.0365,-0.0363,-0.0331,-0.0328,-0.023,-0.0229,-0.0245,-0.0274,-0.0238,0,0,0,-0.0452,-0.0468,-0.0448,-0.0468,-0.044,-0.043,-0.0392,-0.0388,-0.0368,-0.033,-0.023,-0.0229,-0.0246,-0.0274,-0.0238,-0.0272,0,0,0,-0.048,-0.0472,-0.0482,-0.0464,-0.0461,-0.0431,-0.0404,-0.0366,-0.0331,-0.0245,-0.0243,-0.0245,-0.0274,-0.0238,-0.0207,0,0,0,0,-0.0496,-0.0499,-0.0497,-0.0491,-0.0473,-0.0432,-0.0395,-0.035,-0.0276,-0.0315,-0.0218,-0.0236,-0.0212,-0.0232,-0.0223,-0.0223,-0.0224,-0.0224,-0.0224,-0.0542,-0.0524,-0.0534,-0.0504,-0.0487,-0.0426,-0.0378,-0.03,-0.0275,-0.0234,-0.0228,-0.0187,-0.0206,-0.0191,-0.0191,-0.0191,-0.0191,-0.0191,-0.0191,-0.0577,-0.0583,-0.055,-0.0557,-0.0499,-0.0469,-0.0345,-0.0304,-0.0204,-0.0198,-0.0173,-0.0222,-0.0192,-0.0192,-0.0192,-0.0191,-0.0191,-0.0191,-0.0191,-0.0607,-0.0607,-0.0611,-0.0608,-0.0574,-0.0505,-0.0436,-0.0339,-0.0235,-0.0207,-0.0203,-0.0187,-0.0208,-0.0189,-0.0189,-0.0189,-0.0189,-0.0189,-0.0189,-0.0643,-0.064,-0.0675,-0.0664,-0.067,-0.0627,-0.0498,-0.0412,-0.0293,-0.0231,-0.0218,-0.0186,-0.0186,-0.0206,-0.0188,-0.0189,-0.0189,-0.0189,-0.0189,-0.0678,-0.0694,-0.0745,-0.0768,-0.0766,-0.072,-0.0611,-0.042,-0.0329,-0.0236,-0.0216,-0.0215,-0.021,-0.021,-0.0231,-0.022,-0.0221,-0.0221,0,-0.0713,-0.072,-0.0803,-0.0844,-0.0839,-0.0766,-0.0637,-0.0508,-0.0345,-0.0357,-0.0337,-0.0325,-0.0321,-0.0327,-0.0326,-0.0358,0,0,0,-0.074,-0.0766,-0.0828,-0.0872,-0.0869,-0.0702,-0.0595,-0.0531,-0.0383,-0.0269,-0.023,-0.0228,-0.0236,-0.0187,-0.0176,-0.0176,-0.0208,0,0]}]]